Estación de Tamelaike INIA

Ultimos registro cada 15 minutos 87
Estación Fecha / Hora Temperatura Humedad Lluvia Velocidad Dirección Radiación Presion
87 Tamelaike INIA 03-05-2026 21:30 7,3 80,1 0 9,2 264 0 983
86 Tamelaike INIA 03-05-2026 21:15 7,4 78,2 0 10,1 262 0 982
85 Tamelaike INIA 03-05-2026 21:00 7,2 80,1 0 8,7 265 0 983
84 Tamelaike INIA 03-05-2026 20:45 7,3 81,7 0 9,2 257 0 983
83 Tamelaike INIA 03-05-2026 20:30 7,2 78,2 0 8,4 266 0 983
82 Tamelaike INIA 03-05-2026 20:15 7,2 84 0 8 262 0 982
81 Tamelaike INIA 03-05-2026 20:00 7,3 82,8 0 8,4 260 0 1001
80 Tamelaike INIA 03-05-2026 19:45 7,4 82,3 0 9,7 262 0 1001
79 Tamelaike INIA 03-05-2026 19:30 7,3 83,1 0 8,8 269 0 983
78 Tamelaike INIA 03-05-2026 19:15 7,2 82,1 0,1 8,2 272 0 982
77 Tamelaike INIA 03-05-2026 19:00 7,2 84 0 8,2 268 0 983
76 Tamelaike INIA 03-05-2026 18:45 7,2 83,9 0 7,1 275 0 983
75 Tamelaike INIA 03-05-2026 18:30 7,4 84 0,1 8 275 0 982
74 Tamelaike INIA 03-05-2026 18:15 7,1 81,4 0 8 272 0 982
73 Tamelaike INIA 03-05-2026 18:00 6,9 85,2 0 7,9 271 1 982
72 Tamelaike INIA 03-05-2026 17:45 7,1 87,3 0 8 273 6 983
71 Tamelaike INIA 03-05-2026 17:30 7,3 84,8 0,1 7,4 268 8 1000
70 Tamelaike INIA 03-05-2026 17:15 7,4 84,1 0,1 7,4 264 24 982
69 Tamelaike INIA 03-05-2026 17:00 7,6 84,9 0,1 8,6 266 28 982
68 Tamelaike INIA 03-05-2026 16:45 7,9 84 0 8,6 264 41 1000
67 Tamelaike INIA 03-05-2026 16:30 8,5 77,6 0 11 272 72 981
66 Tamelaike INIA 03-05-2026 16:15 8,5 78,6 0 11,3 274 170 982
65 Tamelaike INIA 03-05-2026 16:00 8,3 76,7 0 10,4 270 126 982
64 Tamelaike INIA 03-05-2026 15:45 8,1 81 0,1 9,9 269 141 999
63 Tamelaike INIA 03-05-2026 15:30 8,4 82,7 0,1 10,5 268 69 982
62 Tamelaike INIA 03-05-2026 15:15 8,8 78,1 0,1 10,2 263 123 982
61 Tamelaike INIA 03-05-2026 15:00 8,9 77,8 0 10,6 263 132 983
60 Tamelaike INIA 03-05-2026 14:45 9 78,6 0 10,5 266 187 983
59 Tamelaike INIA 03-05-2026 14:30 9,3 76,8 0 10,2 265 174 981
58 Tamelaike INIA 03-05-2026 14:15 9,4 72,6 0 9,5 272 275 981
57 Tamelaike INIA 03-05-2026 14:00 7,4 82,5 0 4,4 286 250 981
56 Tamelaike INIA 03-05-2026 13:45 6,6 88,6 0 2,6 306 225 982
55 Tamelaike INIA 03-05-2026 13:30 6,2 89,1 0 2,9 288 284 985
54 Tamelaike INIA 03-05-2026 13:15 5,9 91,8 0 3 291 184 983
53 Tamelaike INIA 03-05-2026 13:00 6 88,4 0 2,6 290 250 983
52 Tamelaike INIA 03-05-2026 12:45 5,7 88,1 0 3,3 272 251 983
51 Tamelaike INIA 03-05-2026 12:30 5,5 89,3 0 2,5 274 245 983
50 Tamelaike INIA 03-05-2026 12:15 5,5 88,3 0 2,9 250 160 984
49 Tamelaike INIA 03-05-2026 12:00 5,7 85,6 0 2,3 280 242 984
48 Tamelaike INIA 03-05-2026 11:45 5,5 84,4 0 1,5 271 414 984
47 Tamelaike INIA 03-05-2026 11:30 4,9 86,7 0 1,8 274 376 984
46 Tamelaike INIA 03-05-2026 11:15 4,8 85,3 0 0,7 308 256 1003
45 Tamelaike INIA 03-05-2026 11:00 4,7 84,4 0 0 280 269 984
44 Tamelaike INIA 03-05-2026 10:45 4,2 81,8 0 0 148 219 985
43 Tamelaike INIA 03-05-2026 10:30 3,8 85,7 0 0,5 318 207 985
42 Tamelaike INIA 03-05-2026 10:15 3,4 86,1 0 1,9 264 256 986
41 Tamelaike INIA 03-05-2026 10:00 3,2 89,5 0 0,1 273 149 989
40 Tamelaike INIA 03-05-2026 09:45 3,1 90,6 0 0 0 183 987
39 Tamelaike INIA 03-05-2026 09:30 2,7 91,2 0,1 0 0 108 988
38 Tamelaike INIA 03-05-2026 09:15 2,7 91,9 0,1 0 0 78 989
37 Tamelaike INIA 03-05-2026 09:00 2,4 93,7 0 0 0 57 990
36 Tamelaike INIA 03-05-2026 08:45 2,4 94,3 0 0 0 45 990
35 Tamelaike INIA 03-05-2026 08:30 2,2 94,3 0 0 0 35 990
34 Tamelaike INIA 03-05-2026 08:15 2,4 93,2 0 0 0 13 990
33 Tamelaike INIA 03-05-2026 08:00 2,5 91,9 0 0 0 3 987
32 Tamelaike INIA 03-05-2026 07:45 2,3 92,3 0 0 0 0 988
31 Tamelaike INIA 03-05-2026 07:30 2,1 93,4 0 0 0 0 988
30 Tamelaike INIA 03-05-2026 07:15 2 94,2 0 0 0 0 988
29 Tamelaike INIA 03-05-2026 07:00 1,9 94,1 0 0 0 0 990
28 Tamelaike INIA 03-05-2026 06:45 2 94,4 0 0 0 0 990
27 Tamelaike INIA 03-05-2026 06:30 2 94,1 0 0 0 0 990
26 Tamelaike INIA 03-05-2026 06:15 2 94,1 0 0 0 0 992
25 Tamelaike INIA 03-05-2026 06:00 2 94,4 0 0 0 0 991
24 Tamelaike INIA 03-05-2026 05:45 2 94,3 0 0 0 0 990
23 Tamelaike INIA 03-05-2026 05:30 2,2 92,9 0 0 0 0 990
22 Tamelaike INIA 03-05-2026 05:15 2,5 90,5 0 0 0 0 991
21 Tamelaike INIA 03-05-2026 05:00 2,6 86,8 0 0 0 0 1005
20 Tamelaike INIA 03-05-2026 04:45 2,5 89,3 0 0 0 0 994
19 Tamelaike INIA 03-05-2026 04:30 2,6 87,9 0 0 0 0 991
18 Tamelaike INIA 03-05-2026 04:15 2,8 85 0 0 0 0 1010
17 Tamelaike INIA 03-05-2026 04:00 2,8 84 0 0 0 0 1010
16 Tamelaike INIA 03-05-2026 03:45 2,7 84,2 0 0 0 0 994
15 Tamelaike INIA 03-05-2026 03:30 2,4 87,9 0 0 0 0 992
14 Tamelaike INIA 03-05-2026 03:15 2,4 88,6 0 0 0 0 992
13 Tamelaike INIA 03-05-2026 03:00 2,3 89,8 0 0 56 0 1011
12 Tamelaike INIA 03-05-2026 02:45 2,2 90,2 0 0,6 88 0 992
11 Tamelaike INIA 03-05-2026 02:30 2,4 89,6 0 0 0 0 994
10 Tamelaike INIA 03-05-2026 02:15 2,6 87,9 0 0 0 0 994
9 Tamelaike INIA 03-05-2026 02:00 2,7 87,3 0 0 0 0 997
8 Tamelaike INIA 03-05-2026 01:45 2,7 84,8 0 0 0 0 994
7 Tamelaike INIA 03-05-2026 01:30 2,9 86,6 0 0 0 0 996
6 Tamelaike INIA 03-05-2026 01:15 3,2 83,4 0 0 0 0 997
5 Tamelaike INIA 03-05-2026 01:00 3 85,4 0 0 0 0 995
4 Tamelaike INIA 03-05-2026 00:45 2,9 84,8 0 0 0 0 995
3 Tamelaike INIA 03-05-2026 00:30 2,6 85,3 0 1 46 0 995
2 Tamelaike INIA 03-05-2026 00:15 2,8 85 0 3,1 81 0 995
1 Tamelaike INIA 03-05-2026 00:00 3 81,9 0 1,9 80 0 995